[[{"header":{"parameterUnit":"m.s-1","parameterCategory":1,"la1":30.2991,"la2":30.254,"lo1":-89.0895,"lo2":-89.0444,"dy":0.0017,"dx":0.0017,"nx":28,"ny":28,"refTime":"2024-12-20T09:00:00:Z","depth":0,"parameterNumber":2,"parameterNumberName":"U-component_of_WINDS"},"data":[0,0,0,0,0,0,0,0,0,0,0,0,0,0,0,0,0,0,0,0,0,0,0,0,0,0,0,0,0,0,0,0,0,0,0,0,0,0,0,0,0,0,0,0,0,0,0,0,0,0,0,0,0,0,0,0,0,0,-2.1175,-2.1176,0,-2.1246,-2.1246,-2.1247,-2.1186,-2.1183,-2.118,-2.1178,-2.1252,-2.1256,-2.126,0,0,0,0,0,0,0,0,0,0,0,0,0,-2.0986,-2.099,-2.1175,-2.1176,-2.1177,-2.1246,-2.1247,-2.1247,-2.1186,-2.1183,-2.118,-2.1177,-2.125,-2.1255,-2.126,0,0,0,0,0,0,0,0,0,0,0,0,0,-2.1064,-2.0991,-2.1175,-2.1154,-2.1153,-2.1245,-2.1247,-2.1248,-2.1187,-2.1183,-2.1179,-2.1175,-2.1248,-2.1255,-2.1261,-2.1378,0,0,-2.1281,-2.1284,0,0,0,0,0,0,0,0,-2.1059,-2.107,-2.1156,-2.1156,-2.1155,-2.1203,-2.1207,-2.1291,-2.1188,-2.1174,-2.1178,-2.1174,-2.1239,-2.1246,-2.1267,-2.1381,-2.1384,-2.1282,-2.1286,-2.1288,-2.129,0,0,0,0,0,0,0,-2.1054,-2.1067,-2.1203,-2.1158,-2.1157,-2.1141,-2.1148,-2.1222,-2.1227,-2.1175,-2.1171,-2.118,-2.1237,-2.1261,-2.1269,-2.1385,-2.1281,-2.1287,-2.1291,-2.1294,-2.1596,-2.16,0,0,0,0,0,0,-2.1051,-2.1063,-2.1201,-2.1205,-2.1097,-2.1148,-2.1155,-2.1191,-2.1226,-2.1227,-2.1183,-2.1177,-2.1252,-2.1261,-2.1271,-2.1409,-2.1288,-2.1294,-2.1298,-2.1592,-2.1597,-2.1602,0,0,0,0,0,0,-2.1047,-2.1063,-2.1198,-2.1133,-2.1149,-2.1155,-2.1196,-2.1195,-2.1218,-2.1232,-2.1232,-2.1207,-2.1249,-2.1262,-2.1351,-2.141,-2.1297,-2.1303,-2.1587,-2.1594,-2.1599,-2.1686,0,0,0,0,0,0,-2.1042,-2.1062,-2.1107,-2.1134,-2.1152,-2.1277,-2.12,-2.1199,-2.123,-2.1222,-2.1254,-2.1256,-2.1247,-2.1342,-2.1358,-2.1417,-2.1308,-2.1582,-2.159,-2.1597,-2.1678,-2.1694,-2.1708,0,0,0,0,0,-2.1035,-2.1129,-2.111,-2.1127,-2.1208,-2.1281,-2.1291,-2.1279,-2.1235,-2.1279,-2.1288,-2.1255,-2.1401,-2.1351,-2.1369,-2.1431,-2.1578,-2.1588,-2.1597,-2.1671,-2.1691,-2.1708,0,0,0,0,0,0,-2.111,-2.1133,-2.1111,-2.1217,-2.1247,-2.127,-2.1327,-2.1301,-2.1345,-2.1336,-2.132,-2.1327,-2.1421,-2.1435,-2.1379,-2.1545,-2.1482,-2.1496,-2.1533,-2.1552,-2.1567,-2.1562,-2.1314,0,0,0,0,0,-2.1138,-2.1195,-2.1212,-2.1304,-2.132,-2.1321,-2.1352,-2.134,-2.1371,-2.1383,-2.1398,-2.143,-2.1482,-2.1518,-2.1567,-2.1679,-2.1684,-2.173,-2.1745,-2.1758,-2.177,-2.1828,-2.1848,-2.1632,-2.1632,-2.1632,0,0,-2.1199,-2.1218,-2.1255,-2.1319,-2.1341,-2.14,-2.1332,-2.1398,-2.1441,-2.1393,-2.1478,-2.149,-2.1524,-2.1625,-2.167,-2.1639,-2.183,-2.177,-2.1779,-2.1785,-2.184,-2.186,-2.1878,-2.1638,-2.1637,-2.1636,0,0,-2.1338,-2.1359,-2.1437,-2.146,-2.1494,-2.1493,-2.1512,-2.1539,-2.1544,-2.1629,-2.1594,-2.1645,-2.1737,-2.1762,-2.1787,-2.1933,-2.1904,-2.195,-2.203,-2.2087,-2.2104,-2.2119,-2.2171,-2.219,-2.1961,-2.1962,-2.1962,0,-2.1409,-2.1497,-2.148,-2.1548,-2.1577,-2.1535,-2.1614,-2.1637,-2.1686,-2.1706,-2.1671,-2.1783,-2.1803,-2.1909,-2.1944,-2.1966,-2.1986,-2.1947,-2.2103,-2.2118,-2.2132,-2.2181,-2.22,-2.1967,-2.1966,-2.1966,-2.1965,0,-2.1581,-2.1642,-2.1701,-2.1748,-2.1783,-2.1856,-2.1851,-2.1888,-2.1872,-2.1875,-2.1961,-2.1983,-2.2036,-2.206,-2.2045,-2.2163,-2.2142,-2.2105,-2.2043,-2.2158,-2.2204,-2.2222,-2.1974,-2.1972,-2.1971,-2.197,0,0,-2.1772,-2.1807,-2.1829,-2.1849,-2.1883,-2.1929,-2.2,-2.205,-2.2082,-2.2117,-2.2175,-2.2252,-2.2217,-2.2246,-2.2233,-2.2284,-2.2397,-2.224,-2.2241,-2.2268,-2.2526,-2.2554,-2.2576,-2.2378,-2.2381,-2.2384,-2.2523,0,-2.1913,-2.2035,-2.2021,-2.2138,-2.2193,-2.2153,-2.2214,-2.2241,-2.2245,-2.2292,-2.2296,-2.2351,-2.2302,-2.2318,-2.2366,-2.2373,-2.2449,-2.2363,-2.2431,-2.2434,-2.2424,-2.26,-2.263,-2.2761,-2.2541,-2.2544,-2.2546,0,-2.2094,-2.2133,-2.2255,-2.2278,-2.2301,-2.2356,-2.24,-2.2446,-2.2475,-2.2474,-2.2505,-2.2483,-2.2553,-2.2487,-2.2583,-2.2525,-2.2552,-2.2559,-2.2564,-2.257,-2.2498,-2.2611,-2.2802,-2.2822,-2.2575,-2.2572,-2.257,0,-2.222,-2.2304,-2.2387,-2.2405,-2.2434,-2.2474,-2.2488,-2.2513,-2.2543,-2.2582,-2.2601,-2.2648,-2.2673,-2.2709,-2.27,-2.2654,-2.2798,-2.2732,-2.2799,-2.2799,-2.2831,-2.283,-2.303,-2.2849,-2.2848,-2.2848,-2.2848,0,-2.2379,-2.2455,-2.2444,-2.2495,-2.2578,-2.2562,-2.2644,-2.2653,-2.2675,-2.2727,-2.2695,-2.2744,-2.2729,-2.2778,-2.2771,-2.285,-2.2862,-2.2863,-2.2861,-2.2867,-2.2866,-2.2884,-2.2875,-2.2853,-2.2852,-2.2851,-2.285,0,-2.2535,-2.253,-2.2618,-2.2638,-2.2644,-2.2705,-2.2721,-2.2769,-2.277,-2.2836,-2.285,-2.2851,-2.2906,-2.29,-2.2963,-2.2958,-2.3056,-2.3043,-2.3046,-2.3043,-2.311,-2.3104,-2.3329,-2.3357,-2.3158,-2.316,-2.3162,0,-2.2636,-2.2693,-2.2719,-2.2751,-2.2767,-2.2819,-2.285,-2.2835,-2.2868,-2.2904,-2.2947,-2.2999,-2.304,-2.3129,-2.3136,-2.3182,-2.3169,-2.3245,-2.3176,-2.318,-2.317,-2.3167,-2.3172,-2.3259,-2.3261,-2.3263,-2.3264,0,-2.2817,-2.2811,-2.2857,-2.2901,-2.2938,-2.2972,-2.3003,-2.3031,-2.3019,-2.3058,-2.3113,-2.3145,-2.3207,-2.3258,-2.3302,-2.3316,-2.3288,-2.3286,-2.3303,-2.331,-2.3309,-2.331,-2.3083,-2.3281,-2.3279,-2.3278,-2.3277,-2.3276,-2.2949,-2.2997,-2.3022,-2.3073,-2.3094,-2.3123,-2.3169,-2.3174,-2.322,-2.3269,-2.3257,-2.3319,-2.3345,-2.34,-2.3418,-2.3466,-2.3439,-2.3465,-2.3472,-2.3478,-2.3486,-2.3302,-2.3474,-2.3474,-2.3473,-2.3473,-2.3473,0,-2.3127,-2.3141,-2.3188,-2.3231,-2.3271,-2.324,-2.3272,-2.3308,-2.3363,-2.3389,-2.3429,-2.3492,-2.3541,-2.355,-2.3597,-2.3633,-2.3622,-2.3646,-2.3643,-2.3647,-2.3508,-2.3488,-2.3655,-2.3655,-2.3655,-2.3655,-2.3655,-2.3654,-2.3225,-2.3305,-2.3302,-2.3391,-2.3404,-2.3464,-2.3485,-2.3511,-2.3532,-2.3603,-2.3644,-2.3649,-2.3668,-2.3715,-2.3759,-2.376,-2.3779,-2.3808,-2.3805,-2.3675,-2.3657,-2.3639,-2.362,-2.3812,-2.3813,-2.3939,-2.394,-2.3941]},{"header":{"parameterUnit":"m.s-1","parameterCategory":1,"la1":30.2991,"la2":30.254,"lo1":-89.0895,"lo2":-89.0444,"dy":0.0017,"dx":0.0017,"nx":28,"ny":28,"refTime":"2024-12-20T09:00:00:Z","depth":0,"parameterNumber":3,"parameterNumberName":"V-component_of_WINDS"},"data":[0,0,0,0,0,0,0,0,0,0,0,0,0,0,0,0,0,0,0,0,0,0,0,0,0,0,0,0,0,0,0,0,0,0,0,0,0,0,0,0,0,0,0,0,0,0,0,0,0,0,0,0,0,0,0,0,0,0,-5.5223,-5.5224,0,-5.5325,-5.5327,-5.5328,-5.5248,-5.5244,-5.5241,-5.5238,-5.5338,-5.5344,-5.535,0,0,0,0,0,0,0,0,0,0,0,0,0,-5.4952,-5.4958,-5.5223,-5.5224,-5.5226,-5.5325,-5.5327,-5.5328,-5.5248,-5.5244,-5.524,-5.5236,-5.5336,-5.5343,-5.535,0,0,0,0,0,0,0,0,0,0,0,0,0,-5.5064,-5.496,-5.5223,-5.5198,-5.5197,-5.5325,-5.5327,-5.5328,-5.5249,-5.5244,-5.5239,-5.5234,-5.5334,-5.5343,-5.5351,-5.5508,0,0,-5.5378,-5.5382,0,0,0,0,0,0,0,0,-5.5058,-5.5074,-5.52,-5.52,-5.5199,-5.5269,-5.5268,-5.5388,-5.5251,-5.5229,-5.5238,-5.5232,-5.5319,-5.5329,-5.5359,-5.5513,-5.5517,-5.5379,-5.5384,-5.5388,-5.539,0,0,0,0,0,0,0,-5.505,-5.5069,-5.5263,-5.5202,-5.5201,-5.518,-5.519,-5.529,-5.5301,-5.5231,-5.5225,-5.5239,-5.5317,-5.5351,-5.5361,-5.5518,-5.5379,-5.5386,-5.5392,-5.5395,-5.5802,-5.5808,0,0,0,0,0,0,-5.5045,-5.5063,-5.526,-5.5266,-5.5114,-5.5189,-5.52,-5.5251,-5.53,-5.5303,-5.5243,-5.5235,-5.5338,-5.5351,-5.5364,-5.5549,-5.5388,-5.5396,-5.5401,-5.5797,-5.5804,-5.581,0,0,0,0,0,0,-5.504,-5.5064,-5.5256,-5.5163,-5.5186,-5.5199,-5.5257,-5.5256,-5.5289,-5.5309,-5.531,-5.5275,-5.5335,-5.5352,-5.5472,-5.5551,-5.54,-5.5408,-5.579,-5.5799,-5.5807,-5.5921,0,0,0,0,0,0,-5.5033,-5.5062,-5.5124,-5.5165,-5.5191,-5.5365,-5.5262,-5.5262,-5.5305,-5.5295,-5.534,-5.5342,-5.5332,-5.546,-5.5481,-5.5561,-5.5415,-5.5783,-5.5794,-5.5804,-5.591,-5.5932,-5.5951,0,0,0,0,0,-5.5023,-5.5151,-5.5127,-5.5151,-5.5269,-5.537,-5.5384,-5.5371,-5.5312,-5.5372,-5.5385,-5.5341,-5.5539,-5.5473,-5.5496,-5.558,-5.5778,-5.5791,-5.5803,-5.5901,-5.5928,-5.5951,0,0,0,0,0,0,-5.5118,-5.5156,-5.513,-5.5276,-5.532,-5.5356,-5.5432,-5.54,-5.5461,-5.5449,-5.5428,-5.5439,-5.5566,-5.5584,-5.551,-5.5732,-5.5649,-5.5667,-5.5715,-5.5741,-5.5761,-5.5753,-5.5422,0,0,0,0,0,-5.5156,-5.5236,-5.5265,-5.5391,-5.5414,-5.542,-5.5463,-5.5449,-5.5493,-5.5511,-5.5533,-5.5576,-5.5647,-5.5695,-5.5763,-5.5913,-5.592,-5.5981,-5.6001,-5.6018,-5.6033,-5.6112,-5.6139,-5.5851,-5.5851,-5.585,0,0,-5.5234,-5.5266,-5.5318,-5.5411,-5.5443,-5.5525,-5.5436,-5.5527,-5.5587,-5.5524,-5.564,-5.5657,-5.5704,-5.5839,-5.59,-5.5859,-5.6115,-5.6034,-5.6047,-5.6054,-5.6127,-5.6154,-5.6179,-5.5859,-5.5858,-5.5856,0,0,-5.542,-5.5453,-5.556,-5.5595,-5.5645,-5.5648,-5.5673,-5.5714,-5.5723,-5.5839,-5.5793,-5.5863,-5.5988,-5.6022,-5.6056,-5.6253,-5.6214,-5.6275,-5.6381,-5.6458,-5.6481,-5.65,-5.6569,-5.6594,-5.629,-5.6291,-5.6291,0,-5.5511,-5.5635,-5.5619,-5.5713,-5.5754,-5.5702,-5.581,-5.5843,-5.5913,-5.5941,-5.5895,-5.6049,-5.6077,-5.6218,-5.6266,-5.6296,-5.6323,-5.627,-5.6479,-5.6499,-5.6517,-5.6582,-5.6608,-5.6298,-5.6297,-5.6296,-5.6295,0,-5.5743,-5.5829,-5.5909,-5.5979,-5.6029,-5.6129,-5.6127,-5.6179,-5.616,-5.6166,-5.6283,-5.6315,-5.6386,-5.6419,-5.6401,-5.6558,-5.653,-5.6482,-5.6398,-5.6552,-5.6612,-5.6637,-5.6308,-5.6305,-5.6303,-5.6301,0,0,-5.5992,-5.6051,-5.608,-5.611,-5.6162,-5.6227,-5.6323,-5.6394,-5.6439,-5.6488,-5.6567,-5.6672,-5.6627,-5.6666,-5.6651,-5.6718,-5.6869,-5.6661,-5.6661,-5.6697,-5.7041,-5.7077,-5.7106,-5.6844,-5.6849,-5.6852,-5.7037,0,-5.6178,-5.6349,-5.6336,-5.6496,-5.6573,-5.6525,-5.6608,-5.6647,-5.6656,-5.6721,-5.6729,-5.6804,-5.674,-5.6762,-5.6827,-5.6838,-5.6938,-5.6824,-5.6915,-5.6919,-5.6904,-5.7138,-5.7177,-5.7349,-5.7061,-5.7065,-5.7068,0,-5.642,-5.6478,-5.6645,-5.6683,-5.6715,-5.6791,-5.6854,-5.6918,-5.696,-5.6961,-5.7004,-5.6977,-5.7072,-5.6986,-5.7115,-5.7038,-5.7074,-5.7084,-5.7091,-5.7098,-5.7002,-5.715,-5.7404,-5.743,-5.7105,-5.7102,-5.7099,0,-5.6582,-5.6702,-5.6817,-5.6845,-5.6892,-5.6946,-5.6968,-5.7006,-5.7049,-5.7103,-5.713,-5.7195,-5.723,-5.7279,-5.727,-5.7208,-5.74,-5.7314,-5.7402,-5.7402,-5.7444,-5.7442,-5.7706,-5.747,-5.7469,-5.7469,-5.7468,0,-5.6791,-5.6895,-5.6891,-5.6962,-5.7076,-5.706,-5.7172,-5.7187,-5.7221,-5.7292,-5.7253,-5.732,-5.7304,-5.737,-5.7363,-5.7469,-5.7486,-5.7488,-5.7484,-5.7491,-5.749,-5.7514,-5.7501,-5.7476,-5.7474,-5.7473,-5.7472,0,-5.6992,-5.6994,-5.7116,-5.7151,-5.7162,-5.7244,-5.7272,-5.7338,-5.7343,-5.7433,-5.7453,-5.746,-5.7535,-5.7531,-5.7616,-5.761,-5.7741,-5.7725,-5.7728,-5.7724,-5.7811,-5.7803,-5.8099,-5.8137,-5.7877,-5.7879,-5.7882,0,-5.7126,-5.7204,-5.7247,-5.7293,-5.7319,-5.7392,-5.7436,-5.7422,-5.7469,-5.7522,-5.7581,-5.7653,-5.7709,-5.7832,-5.7843,-5.7907,-5.789,-5.799,-5.79,-5.7903,-5.789,-5.7885,-5.7892,-5.8007,-5.801,-5.8013,-5.8015,0,-5.7361,-5.7357,-5.7423,-5.7488,-5.7541,-5.7592,-5.7638,-5.7677,-5.7667,-5.7721,-5.7798,-5.7843,-5.7929,-5.8,-5.8061,-5.8081,-5.8046,-5.8043,-5.8066,-5.8073,-5.8071,-5.8072,-5.7775,-5.8036,-5.8034,-5.8032,-5.8031,-5.803,-5.7531,-5.7598,-5.7639,-5.7712,-5.7745,-5.7788,-5.7851,-5.7864,-5.7928,-5.7999,-5.7986,-5.8072,-5.8109,-5.8188,-5.8214,-5.8279,-5.8243,-5.8278,-5.8286,-5.8294,-5.8304,-5.8062,-5.829,-5.8289,-5.8289,-5.8288,-5.8288,0,-5.7763,-5.7787,-5.7854,-5.792,-5.7977,-5.794,-5.7989,-5.8038,-5.8115,-5.8154,-5.8211,-5.8298,-5.8366,-5.8383,-5.8447,-5.8497,-5.8482,-5.8514,-5.851,-5.8514,-5.8333,-5.8306,-5.8525,-5.8525,-5.8525,-5.8524,-5.8524,-5.8524,-5.7891,-5.8002,-5.8003,-5.8128,-5.815,-5.8235,-5.8266,-5.8305,-5.8336,-5.8435,-5.8493,-5.8503,-5.8532,-5.8598,-5.8659,-5.8661,-5.8686,-5.8725,-5.8721,-5.8551,-5.8527,-5.8505,-5.8479,-5.8731,-5.8731,-5.8896,-5.8898,-5.8899]}]]